Zurück zum Katalog

STARLINK-11643

AktivKommunikationVLEO
NORAD 63192·PAYLOAD·🇺🇸 United States

Gestartet Mar 13, 2025 von Cape Canaveral Space Force Station

Loading…

Nächste Überflüge (nächste 24 Stunden)

TLE

AktuellSource: CelesTrak SupGP

Epoche: Sep 15, 2026, 03:57 UTC

1 63192C 25048K   26258.16506944 -.00039700  00000+0 -30814-3 0  2585
2 63192  43.0005 257.8102 0001496 254.9799 356.3631 15.70874126    14

Verfolge STARLINK-11643 in Echtzeit mit AllMySat

Download on the App Store